星链-5113 (STARLINK-5113 )

导读

STARLINK-5113是美国太空探索技术公司(SpaceX)星链(Starlink)互联网卫星项目中的一颗卫星,于2022年10月5日发射升空,属于星链低轨卫星星座的组成部分。该卫星旨在为全球用户提供低延迟、高速率的卫星互联网服务,推进星链星座全球覆盖组网的进程。

基本信息
目录编号:
53988
目录名称:
STARLINK-5113
国际标识:
2022-125AA
轨道中心:
EARTH
卫星名称:
星链-5113
卫星全名:
星链-5113 (STARLINK-5113 )
卫星状态:
在轨 (已飞行1438 天)
发射日期:
2022-10-05 UTC
国别 :
美国 (US)
星等 :
--
该卫星已列入 空间交会检测服务 Space Conjunction Data Service (SCDS) ,当前飞行风险评估等级: 高风险
轨道信息
数据来源 国际轨道数据
星历时间: 2026-09-12T06:00:02+0800
7小时前
查看轨道信息
半长轴: 6840.912km
偏心率: 0.0001225
轨道倾角: 53.159°
近地点辐角 80.611°
升交点赤经 91.850°
平近点角 48.511°
近地点: 461.936km
远地点: 463.614km
周期: 93.849分钟
每日圈数: 15.343759
详细信息
固有亮度:
5
最大亮度:
2.5
卫星平台:
Starlink v1.5
覆盖范围:
全球
运营商:
太空探索技术公司
运营商所在国:
美国
制造商(研发单位):
太空探索技术公司
制造商所在国:
美国
使用方式:
暂无
卫星简介
星链(Starlink)计划是由太空探索技术公司(SpaceX)提出的一个巨型低轨卫星互联网星座项目,计划在2019年至2024年间在太空搭建由约1.2万颗卫星组成的“星链”网络,其中1584颗将部署在地球上空550千米处的近地轨道,并从2020年开始工作。该卫星仍在工作。
2D轨道图
3D轨道图
轨道高度分析图
轨道倾角分析图
轨道综合分析图
查看轨道综合分析图
与全量物体交会距离演化趋势
与全量物体交会风险概率演化趋势